DW5430 Weather Reports


time (UTC)temp
C
wind
direction
speed
KPH
gust
KPH
rain 1hr
cm
rain 24hr
cm
rain mn
cm
humidity
%
barometer
mb
20260505153004 11 358 9.7 19.3 0.00 0.00 0.00 53 1004.1
20260505151503 11 46 11.3 19.3 0.00 0.00 0.00 59 1004.1
20260505124543 13 223 8.0 11.3 0.00 0.00 0.00 38 1003.4
20260505123037 13 231 6.4 11.3 0.00 0.00 0.00 38 1003.3
20260505121539 13 239 9.7 14.5 0.00 0.00 0.00 37 1003.0
20260505120038 13 236 3.2 8.0 0.00 0.00 0.00 37 1002.8
20260505114531 13 271 4.8 11.3 0.00 0.00 0.00 37 1002.6
20260505113033 13 191 4.8 9.7 0.00 0.00 0.00 37 1002.4
20260505111529 13 299 1.6 4.8 0.00 0.00 0.00 36 1002.7
20260505101525 15 269 9.7 16.1 0.00 0.00 0.00 33 1002.4
20260505100019 15 262 9.7 20.9 0.00 0.00 0.00 33 1002.2
20260505094525 15 270 9.7 14.5 0.00 0.00 0.00 33 1002.5
20260505093015 15 207 8.0 16.1 0.00 0.00 0.00 33 1002.4
20260505091514 15 229 0.0 16.1 0.00 0.00 0.00 33 1002.6
20260505090011 15 269 8.0 12.9 0.00 0.00 0.00 33 1002.8
20260505084509 15 291 8.0 19.3 0.00 0.00 0.00 32 1003.0
20260505083007 15 301 6.4 14.5 0.00 0.00 0.00 32 1002.9
20260505081506 16 246 16.1 25.7 0.00 0.00 0.00 31 1002.9
20260505080002 16 221 16.1 24.1 0.00 0.00 0.00 30 1003.0
20260505074600 16 274 16.1 25.7 0.00 0.00 0.00 30 1003.2
20260505073103 16 248 12.9 22.5 0.00 0.00 0.00 29 1003.1
20260505071555 16 269 17.7 29.0 0.00 0.00 0.00 28 1002.9
20260505070054 17 232 11.3 17.7 0.00 0.00 0.00 27 1002.7
20260505064548 17 214 9.7 16.1 0.00 0.00 0.00 27 1002.7
20260505063107 17 294 11.3 20.9 0.00 0.00 0.00 26 1002.5
20260505061545 17 257 16.1 24.1 0.00 0.00 0.00 25 1002.4
20260505060039 17 273 17.7 27.4 0.00 0.00 0.00 24 1002.2
20260505054540 18 278 12.9 22.5 0.00 0.00 0.00 24 1002.1
20260505053042 18 239 9.7 20.9 0.00 0.00 0.00 24 1002.0
20260505051538 18 263 14.5 24.1 0.00 0.00 0.00 24 1001.8
20260505041550 18 235 6.4 12.9 0.00 0.00 0.00 24 1001.8
20260505040045 19 265 6.4 17.7 0.00 0.00 0.00 23 1001.7
20260505034535 20 267 8.0 19.3 0.00 0.00 0.00 23 1001.7
20260505033033 20 328 8.0 16.1 0.00 0.00 0.00 22 1001.4
20260505031541 20 270 8.0 25.7 0.00 0.00 0.00 22 1001.1
20260505030032 20 312 12.9 29.0 0.00 0.00 0.00 21 1001.1
20260505024533 20 270 16.1 30.6 0.00 0.00 0.00 21 1000.8
20260505023031 21 319 17.7 30.6 0.00 0.00 0.00 20 1000.7
20260505021534 21 309 16.1 29.0 0.00 0.00 0.00 20 1000.6
20260505020029 21 325 14.5 30.6 0.00 0.00 0.00 20 1000.4
20260505014536 21 301 16.1 27.4 0.00 0.00 0.00 19 1000.4
20260505013028 21 323 20.9 33.8 0.00 0.00 0.00 18 1000.2
20260505011528 22 342 20.9 37.0 0.00 0.00 0.00 17 1000.0
20260505010027 22 309 9.7 30.6 0.00 0.00 0.00 16 1000.0
20260505004528 22 288 17.7 30.6 0.00 0.00 0.00 15 1000.1
20260505003025 22 290 25.7 38.6 0.00 0.00 0.00 14 1000.1
20260505001528 22 316 14.5 37.0 0.00 0.00 0.00 13 1000.3
20260505000025 22 283 16.1 32.2 0.00 0.00 0.00 13 1000.2
20260504234522 22 312 19.3 33.8 0.00 0.00 0.00 12 1000.3
20260504233023 22 277 17.7 29.0 0.00 0.00 0.00 12 1000.6
20260504231522 22 277 24.1 37.0 0.00 0.00 0.00 12 1000.3
20260504230020 22 266 29.0 46.7 0.00 0.00 0.00 12 1000.3
20260504224520 23 271 30.6 41.8 0.00 0.00 0.00 11 1000.4
20260504223026 23 279 25.7 40.2 0.00 0.00 0.00 12 1000.6
20260504221515 23 305 22.5 45.1 0.00 0.00 0.00 12 1000.7
20260504220016 23 312 17.7 46.7 0.00 0.00 0.00 13 1001.2
20260504214514 23 307 24.1 49.9 0.00 0.00 0.00 13 1001.5
20260504213020 23 304 4.8 25.7 0.00 0.00 0.00 16 1001.6
20260504211506 22 272 16.1 33.8 0.00 0.00 0.00 16 1001.9
20260504210003 23 255 24.1 37.0 0.00 0.00 0.00 16 1002.1
20260504204600 22 285 22.5 41.8 0.00 0.00 0.00 17 1002.6
20260504203110 22 249 19.3 45.1 0.00 0.00 0.00 17 1003.0
20260504201600 22 293 14.5 37.0 0.00 0.00 0.00 17 1003.5
20260504200106 22 277 17.7 40.2 0.00 0.00 0.00 17 1003.7
20260504194551 21 274 24.1 41.8 0.00 0.00 0.00 18 1003.8
20260504193053 21 320 11.3 45.1 0.00 0.00 0.00 20 1004.3
20260504191555 21 246 20.9 35.4 0.00 0.00 0.00 19 1004.5
20260504190047 21 262 19.3 35.4 0.00 0.00 0.00 20 1004.7
20260504184542 20 274 14.5 37.0 0.00 0.00 0.00 20 1005.3
20260504183041 20 281 17.7 27.4 0.00 0.00 0.00 20 1005.3
20260504181544 20 263 20.9 32.2 0.00 0.00 0.00 20 1005.5
20260504180037 20 316 14.5 27.4 0.00 0.00 0.00 20 1005.5
20260504174535 20 280 16.1 30.6 0.00 0.00 0.00 23 1005.6
20260504173033 19 277 9.7 25.7 0.00 0.00 0.00 22 1005.9
20260504171531 19 292 16.1 27.4 0.00 0.00 0.00 25 1006.0